GW6228 Weather Reports


Display with metric or nautical units.
time (UTC)temp
F
wind
direction
speed
MPH
gust
MPH
rain 1hr
in
rain 24hr
in
rain mn
in
humidity
%
barometer
mb
20260505095405 51 55 0.0 0.0 0.00 0.00 0.01 87 1005.1
20260505094845 52 58 0.0 0.0 0.00 0.00 0.01 87 1004.9
20260505094324 51 43 0.0 0.0 0.00 0.00 0.01 87 1005.2
20260505093805 51 16 0.0 0.0 0.00 0.00 0.01 87 1005.1
20260505093245 51 34 0.0 0.0 0.00 0.00 0.01 87 1005.1
20260505092725 51 47 0.0 0.0 0.00 0.00 0.01 87 1005.1
20260505092204 51 55 0.0 0.0 0.00 0.00 0.01 87 1005.3
20260505091645 52 53 0.0 0.0 0.00 0.00 0.01 87 1005.1
20260505091124 52 54 0.0 0.0 0.00 0.00 0.01 86 1004.9
20260505090604 52 52 0.0 0.0 0.00 0.00 0.01 86 1005.1
20260505090045 52 21 0.0 0.0 0.00 0.00 0.01 85 1005.0
20260505085524 52 49 0.0 0.0 0.00 0.00 0.01 85 1004.9
20260505085004 53 9 0.0 0.0 0.00 0.00 0.01 85 1004.7
20260505084445 53 346 0.0 0.0 0.00 0.00 0.01 85 1004.8
20260505083925 53 341 0.0 0.0 0.00 0.00 0.01 83 1004.8
20260505083404 53 50 0.0 0.0 0.00 0.00 0.01 83 1004.7
20260505082845 54 345 0.0 0.0 0.00 0.00 0.01 82 1004.5
20260505082324 53 151 0.0 0.0 0.00 0.00 0.01 80 1004.7
20260505081804 53 101 0.0 0.0 0.00 0.00 0.01 81 1004.5
20260505081245 54 119 0.0 0.0 0.00 0.00 0.01 80 1004.5
20260505080725 54 161 0.0 0.0 0.00 0.00 0.01 80 1004.6
20260505080204 54 141 0.0 0.0 0.00 0.00 0.01 79 1004.4
20260505075644 54 150 0.0 0.0 0.00 0.00 0.01 78 1004.3
20260505075125 54 153 0.0 0.0 0.00 0.00 0.01 77 1004.4
20260505074604 54 160 0.0 0.0 0.00 0.00 0.01 77 1004.2
20260505074045 55 153 0.0 0.0 0.00 0.00 0.01 76 1004.3
20260505073524 55 165 0.0 0.0 0.00 0.00 0.01 75 1004.0
20260505073009 55 167 0.0 0.0 0.00 0.00 0.01 75 1003.9
20260505072445 55 154 0.0 0.0 0.00 0.00 0.01 75 1004.1
20260505071925 55 158 0.0 0.0 0.00 0.00 0.01 74 1004.1
20260505071405 55 186 0.0 0.0 0.00 0.00 0.01 74 1003.9
20260505070846 55 175 0.0 0.0 0.00 0.00 0.01 74 1003.8
20260505070325 56 182 0.0 0.0 0.00 0.00 0.01 74 1003.8
20260505065804 55 190 0.0 0.0 0.00 0.00 0.01 74 1003.7
20260505065246 56 171 0.0 0.0 0.00 0.00 0.01 74 1003.7
20260505064730 56 142 0.0 0.0 0.00 0.00 0.01 75 1003.7
20260505064220 56 130 0.0 0.0 0.00 0.00 0.01 74 1003.5
20260505063701 57 120 0.0 0.0 0.00 0.00 0.01 74 1003.6
20260505063124 57 122 0.0 0.0 0.00 0.00 0.01 72 1003.6
20260505062604 57 128 0.0 0.0 0.00 0.00 0.01 71 1003.6
20260505062045 57 130 0.0 0.0 0.00 0.00 0.01 70 1003.6
20260505061524 57 137 0.0 0.0 0.00 0.00 0.01 70 1003.7
20260505061003 57 165 0.0 0.0 0.00 0.00 0.01 70 1003.7
20260505060446 57 151 0.0 0.0 0.00 0.00 0.01 72 1003.6
20260505055925 57 144 0.0 0.0 0.00 0.00 0.01 71 1003.4
20260505055406 57 114 0.0 0.0 0.00 0.00 0.01 70 1003.3
20260505054845 57 165 0.0 0.0 0.00 0.00 0.01 70 1003.5
20260505054326 57 165 0.0 0.0 0.00 0.00 0.01 70 1003.3
20260505053805 57 283 0.0 0.0 0.00 0.00 0.01 68 1003.2
20260505053245 57 150 0.0 0.0 0.00 0.00 0.01 69 1003.3
20260505052724 57 137 0.0 0.0 0.00 0.00 0.01 70 1003.2
20260505052204 57 178 0.0 0.0 0.00 0.00 0.01 68 1003.0
20260505051644 57 112 0.0 0.0 0.00 0.00 0.01 69 1002.9
20260505051124 57 150 0.0 0.0 0.00 0.00 0.01 70 1003.1
20260505050604 57 95 0.0 0.0 0.00 0.00 0.01 69 1003.1
20260505041244 56 170 0.0 0.0 0.00 0.00 0.01 70 1002.7
20260505040724 56 163 3.0 5.0 0.00 0.00 0.01 70 1002.8
20260505040204 56 147 4.0 5.0 0.00 0.00 0.01 70 1002.7
20260505035645 58 182 0.0 0.0 0.00 0.00 0.01 70 1002.7
20260505035124 57 170 7.0 8.0 0.00 0.00 0.01 70 1002.7
20260505034604 57 158 5.0 5.0 0.00 0.00 0.01 69 1002.5
20260505034045 58 201 1.0 3.0 0.00 0.00 0.01 69 1002.7
20260505033523 59 198 2.0 5.0 0.00 0.00 0.01 66 1002.7
20260505033004 59 153 4.0 5.0 0.00 0.00 0.01 68 1002.6
20260505032445 58 169 6.0 8.0 0.00 0.00 0.01 67 1002.6
20260505031924 59 164 3.0 5.0 0.00 0.00 0.01 67 1002.7
20260505031404 59 169 7.0 10.0 0.00 0.00 0.01 67 1002.5
20260505030845 59 169 5.0 8.0 0.00 0.00 0.01 66 1002.5
20260505030324 60 159 7.0 8.0 0.00 0.00 0.01 65 1002.7
20260505025804 59 190 5.0 8.0 0.00 0.00 0.01 68 1002.8
20260505025244 58 178 1.0 3.0 0.00 0.00 0.01 67 1002.7
20260505024724 59 170 7.0 10.0 0.00 0.00 0.01 67 1002.7
20260505024205 59 175 3.0 5.0 0.00 0.00 0.01 67 1002.5
20260505023645 59 183 5.0 8.0 0.00 0.00 0.01 70 1002.7
20260505023124 58 178 5.0 8.0 0.00 0.00 0.01 69 1002.7
20260505022604 59 191 5.0 5.0 0.00 0.00 0.01 66 1002.7
20260505022044 59 196 2.0 5.0 0.00 0.00 0.01 67 1002.9
20260505021524 59 171 7.0 8.0 0.00 0.00 0.01 69 1003.1
20260505021005 57 180 4.0 5.0 0.00 0.00 0.01 69 1002.9
20260505020445 57 177 3.0 5.0 0.00 0.00 0.01 71 1002.9
20260505015925 56 151 5.0 8.0 0.00 0.00 0.01 75 1003.2
20260505015405 55 204 2.0 3.0 0.00 0.00 0.01 75 1003.3
20260505014845 56 176 6.0 8.0 0.00 0.00 0.01 75 1003.1
20260505014326 55 172 9.0 10.0 0.00 0.00 0.01 75 1003.2
20260505013805 56 174 8.0 10.0 0.00 0.00 0.01 75 1003.0
20260505013245 57 168 9.0 13.0 0.00 0.00 0.01 74 1003.2
20260505012725 56 187 3.0 5.0 0.00 0.00 0.01 74 1003.0
20260505012205 56 175 4.0 5.0 0.00 0.00 0.01 77 1003.4
20260505011645 56 178 3.0 5.0 0.00 0.00 0.01 77 1003.1
20260505011124 56 171 3.0 5.0 0.00 0.00 0.01 77 1003.0
20260505010605 56 174 6.0 8.0 0.00 0.00 0.01 75 1003.2
20260505010045 55 177 6.0 10.0 0.00 0.00 0.01 77 1002.9
20260505005524 55 175 7.0 10.0 0.00 0.00 0.01 79 1003.0
20260505005005 55 190 4.0 5.0 0.00 0.00 0.01 81 1003.0
20260505004444 54 202 2.0 5.0 0.00 0.00 0.01 81 1002.8
20260505003924 54 163 6.0 8.0 0.00 0.00 0.01 82 1002.9
20260505003404 54 193 2.0 3.0 0.00 0.00 0.01 84 1002.7
20260505002844 54 172 5.0 8.0 0.00 0.00 0.01 86 1002.8
20260505002324 54 183 0.0 0.0 0.00 0.00 0.01 90 1002.8
20260505001804 53 178 5.0 5.0 0.00 0.00 0.01 92 1002.8
20260505001244 52 188 4.0 5.0 0.00 0.00 0.01 95 1002.6
20260505000725 51 185 3.0 5.0 0.00 0.00 0.01 97 1002.8
20260505000204 52 175 3.0 5.0 0.00 0.00 0.01 97 1002.8
20260504235644 52 166 3.0 5.0 0.00 0.00 0.01 98 1002.7
20260504235124 51 170 3.0 5.0 0.00 0.00 0.01 97 1002.5
20260504234604 51 160 3.0 5.0 0.00 0.00 0.01 97 1002.9
20260504234044 51 160 5.0 8.0 0.00 0.00 0.01 97 1002.7
20260504233523 51 187 7.0 10.0 0.00 0.00 0.01 97 1002.7
20260504233004 51 172 2.0 5.0 0.00 0.00 0.01 97 1002.6
20260504232444 52 149 4.0 5.0 0.00 0.00 0.01 98 1002.6
20260504231923 52 166 4.0 5.0 0.00 0.00 0.01 98 1002.5
20260504231403 51 176 3.0 5.0 0.00 0.00 0.01 98 1002.4
20260504230844 51 193 0.0 0.0 0.00 0.00 0.01 98 1002.1
20260504230323 51 176 0.0 0.0 0.00 0.00 0.01 98 1002.4
20260504225804 51 150 0.0 0.0 0.01 0.00 0.01 98 1002.4
20260504225245 51 154 0.0 0.0 0.01 0.00 0.01 98 1002.3
20260504224723 51 168 0.0 0.0 0.01 0.00 0.01 98 1002.2
20260504224203 51 163 0.0 0.0 0.01 0.00 0.01 97 1002.3
20260504223644 51 161 0.0 0.0 0.01 0.00 0.01 97 1002.1
20260504223123 51 158 0.0 0.0 0.01 0.00 0.01 97 1002.3
20260504222603 51 151 0.0 0.0 0.01 0.00 0.01 97 1002.1
20260504222045 51 153 0.0 0.0 0.01 0.00 0.01 97 1001.8
20260504221523 51 85 0.0 0.0 0.01 0.00 0.01 97 1001.9
20260504221003 50 313 0.0 0.0 0.01 0.00 0.01 97 1001.9
20260504220444 50 335 0.0 0.0 0.01 0.00 0.01 97 1001.6
20260504215923 50 322 0.0 0.0 0.00 0.00 0.00 97 1001.6
20260504215403 51 124 0.0 0.0 0.00 0.00 0.00 97 1001.6
20260504214844 51 42 0.0 0.0 0.00 0.00 0.00 97 1001.5
20260504214323 50 16 0.0 0.0 0.00 0.00 0.00 97 1001.3
20260504213803 50 113 0.0 0.0 0.00 0.00 0.00 97 1001.1
20260504213244 50 349 0.0 0.0 0.00 0.00 0.00 97 1001.1
20260504212723 50 55 0.0 0.0 0.00 0.00 0.00 97 1001.1
20260504212203 50 53 0.0 0.0 0.00 0.00 0.00 97 1000.9
20260504211644 50 74 0.0 0.0 0.00 0.00 0.00 97 1000.9
20260504211123 50 325 0.0 0.0 0.00 0.00 0.00 97 1000.8
20260504210603 50 78 0.0 0.0 0.00 0.00 0.00 96 1000.6
20260504210044 50 35 0.0 0.0 0.00 0.00 0.00 97 1000.7
20260504205523 50 4 0.0 0.0 0.00 0.00 0.00 96 1000.6
20260504205003 50 359 0.0 0.0 0.00 0.00 0.00 96 1000.5
20260504204444 50 288 0.0 0.0 0.00 0.00 0.00 96 1000.4
20260504203923 50 4 0.0 0.0 0.00 0.00 0.00 96 1000.3
20260504203403 50 78 0.0 0.0 0.00 0.00 0.00 96 1000.2
20260504202844 50 39 0.0 0.0 0.00 0.00 0.00 96 1000.2
20260504202323 50 348 0.0 0.0 0.00 0.00 0.00 96 1000.0
20260504201803 51 39 0.0 0.0 0.00 0.00 0.00 95 1000.0
20260504201244 51 3 0.0 0.0 0.00 0.00 0.00 95 1000.0
20260504200723 51 75 0.0 0.0 0.00 0.00 0.00 95 999.8
20260504200203 51 143 0.0 0.0 0.00 0.00 0.00 95 999.6
20260504195645 50 80 0.0 0.0 0.00 0.00 0.00 95 999.7
20260504195123 50 310 0.0 0.0 0.00 0.00 0.00 95 999.8
20260504194603 51 61 0.0 0.0 0.00 0.00 0.00 95 999.8
20260504194045 50 24 0.0 0.0 0.00 0.00 0.00 95 999.7
20260504193523 50 352 0.0 0.0 0.00 0.00 0.00 95 999.6
20260504193003 50 358 0.0 0.0 0.00 0.00 0.00 95 999.6
20260504192444 50 4 0.0 0.0 0.00 0.00 0.00 95 999.7
20260504191923 50 7 0.0 0.0 0.00 0.00 0.00 95 999.4
20260504191403 50 2 0.0 0.0 0.00 0.00 0.00 95 999.4
20260504190844 50 341 0.0 0.0 0.00 0.00 0.00 95 999.4
20260504190323 50 47 0.0 0.0 0.00 0.00 0.00 95 999.4
20260504185803 50 54 0.0 0.0 0.00 0.00 0.00 95 999.4
20260504185245 50 352 0.0 0.0 0.00 0.00 0.00 95 999.3
20260504184723 50 63 0.0 0.0 0.00 0.00 0.00 96 999.1
20260504184202 50 351 0.0 0.0 0.00 0.00 0.00 96 999.1
20260504183644 50 1 0.0 0.0 0.00 0.00 0.00 96 998.9
20260504183123 50 6 0.0 0.0 0.00 0.00 0.00 96 999.1
20260504182603 50 346 0.0 0.0 0.00 0.00 0.00 96 998.8
20260504182044 50 14 0.0 0.0 0.00 0.00 0.00 97 999.1
20260504181523 50 335 0.0 0.0 0.00 0.00 0.00 97 998.7
20260504181002 50 326 0.0 0.0 0.00 0.00 0.00 97 998.8
20260504180444 50 13 1.0 5.0 0.00 0.00 0.00 98 998.7
20260504175923 50 329 0.0 0.0 0.00 0.00 0.00 98 998.7
20260504175403 50 337 0.0 0.0 0.00 0.00 0.00 98 998.7
20260504174845 50 351 0.0 0.0 0.00 0.00 0.00 98 998.7
20260504174323 50 7 0.0 0.0 0.00 0.00 0.00 98 998.7
20260504173803 50 36 0.0 0.0 0.00 0.00 0.00 99 998.5
20260504173245 50 335 0.0 0.0 0.00 0.00 0.00 99 998.6
20260504172723 50 61 0.0 0.0 0.00 0.00 0.00 99 998.6
20260504172202 50 346 3.0 5.0 0.00 0.00 0.00 99 998.7
20260504171644 50 17 0.0 0.0 0.00 0.00 0.00 99 998.5
20260504171123 50 342 0.0 0.0 0.00 0.00 0.00 99 998.5
20260504170603 50 338 0.0 0.0 0.00 0.00 0.00 99 998.4
20260504160203 50 35 0.0 3.0 0.00 0.00 0.00 99 998.4
20260504150851 50 19 1.0 3.0 0.00 0.00 0.00 99 998.2
20260504150324 50 32 1.0 3.0 0.00 0.00 0.00 99 997.9
20260504141024 51 311 2.0 3.0 0.00 0.00 0.00 99 997.6
20260504140514 51 14 3.0 5.0 0.00 0.00 0.00 99 997.8
20260504130323 51 46 3.0 5.0 0.00 0.00 0.15 99 997.4
20260504110603 52 321 3.0 5.0 0.00 0.00 0.15 98 996.7
20260504100202 53 15 7.0 8.0 0.00 0.00 0.15 97 995.9